Total_Precipitation_Accumulation
0.25 0.22 0.19 0.19 0.19 0.22 0.26 0.27 0.27 0.25 0.19 0.17 0.19 0.20 0.21 0.23 0.26 0.32 0.35 0.39 0.49 0.60 0.69 0.73 0.76 0.78 0.81 0.79 0.85 0.86 0.81 0.89 0.89 0.75 0.81 0.87 0.77 0.59 0.48 0.46 0.47 0.50 0.47
0.26 0.24 0.19 0.17 0.17 0.19 0.22 0.24 0.24 0.25 0.23 0.20 0.20 0.20 0.18 0.17 0.24 0.34 0.44 0.45 0.48 0.55 0.77 0.99 1.01 1.01 0.93 0.85 0.93 0.91 0.87 1.01 0.97 0.86 0.94 0.97 0.92 0.74 0.58 0.50 0.42 0.42 0.45
0.27 0.24 0.22 0.18 0.15 0.17 0.20 0.22 0.22 0.24 0.26 0.24 0.23 0.21 0.18 0.16 0.17 0.25 0.37 0.42 0.51 0.64 0.80 0.93 1.05 1.17 1.06 0.97 0.95 0.94 0.96 1.06 1.04 0.94 0.97 1.11 1.14 0.95 0.71 0.50 0.38 0.38 0.40
0.27 0.26 0.23 0.22 0.21 0.21 0.19 0.21 0.21 0.24 0.28 0.28 0.27 0.25 0.23 0.18 0.17 0.21 0.29 0.36 0.49 0.68 0.74 0.68 0.79 1.05 1.16 1.09 0.97 0.92 0.96 1.00 1.01 1.02 1.07 1.20 1.26 1.20 0.95 0.66 0.49 0.39 0.35
0.32 0.35 0.34 0.33 0.34 0.33 0.30 0.29 0.31 0.32 0.33 0.36 0.34 0.32 0.30 0.24 0.18 0.25 0.33 0.28 0.33 0.42 0.46 0.46 0.51 0.69 0.95 1.12 1.05 0.96 0.96 0.94 0.95 1.03 1.10 1.19 1.22 1.26 1.10 0.84 0.63 0.52 0.42
0.48 0.52 0.52 0.59 0.61 0.55 0.51 0.51 0.49 0.49 0.52 0.55 0.53 0.49 0.45 0.33 0.29 0.27 0.29 0.31 0.33 0.35 0.36 0.40 0.39 0.38 0.49 0.70 0.91 1.04 1.09 1.02 0.95 0.99 1.12 1.16 1.17 1.18 1.16 1.00 0.78 0.60 0.49
0.64 0.74 0.79 0.82 0.88 0.86 0.81 0.76 0.71 0.73 0.77 0.77 0.74 0.69 0.65 0.61 0.48 0.36 0.29 0.30 0.31 0.32 0.36 0.40 0.32 0.27 0.36 0.44 0.59 0.72 0.85 0.92 0.93 0.98 1.04 1.13 1.21 1.31 1.30 1.12 0.93 0.79 0.63
0.84 0.96 1.07 1.05 1.02 1.01 0.99 0.89 0.88 0.95 0.98 0.96 0.90 0.83 0.82 0.76 0.61 0.45 0.37 0.31 0.33 0.38 0.42 0.45 0.44 0.40 0.41 0.48 0.54 0.55 0.59 0.64 0.68 0.74 0.84 1.01 1.19 1.37 1.48 1.37 1.23 0.99 0.83
0.85 0.88 0.90 0.96 1.03 1.10 1.08 1.07 1.11 1.11 1.03 0.93 0.87 0.86 0.87 0.87 0.74 0.56 0.49 0.46 0.50 0.50 0.51 0.51 0.50 0.46 0.44 0.39 0.45 0.48 0.49 0.52 0.55 0.62 0.68 0.85 1.12 1.33 1.42 1.44 1.31 1.10 0.89
0.82 0.82 0.78 0.85 0.99 1.11 1.16 1.16 1.14 1.12 1.08 1.05 0.96 0.97 0.99 1.01 0.91 0.65 0.57 0.56 0.60 0.61 0.66 0.64 0.54 0.48 0.43 0.35 0.39 0.46 0.45 0.47 0.55 0.59 0.63 0.66 0.78 1.07 1.32 1.21 1.13 1.06 0.90
0.65 0.72 0.77 0.86 0.97 1.03 1.11 1.15 1.18 1.20 1.23 1.24 1.17 1.11 1.12 1.12 1.06 0.79 0.67 0.63 0.72 0.82 0.82 0.79 0.75 0.60 0.44 0.39 0.41 0.47 0.46 0.53 0.68 0.73 0.73 0.76 0.83 0.94 1.11 1.13 1.04 0.96 0.90
0.45 0.49 0.52 0.63 0.75 0.83 0.96 1.00 1.06 1.08 1.08 1.08 1.09 1.03 1.01 1.02 0.96 0.84 0.66 0.60 0.69 0.86 0.95 0.97 0.96 0.79 0.57 0.47 0.40 0.38 0.37 0.38 0.52 0.64 0.71 0.73 0.76 0.84 0.96 1.09 1.12 1.07 0.94
0.41 0.41 0.44 0.51 0.67 0.83 0.88 0.86 0.89 0.91 0.90 0.90 0.93 0.94 0.92 0.92 0.87 0.66 0.54 0.46 0.51 0.67 0.83 0.93 0.87 0.73 0.61 0.49 0.41 0.37 0.35 0.33 0.43 0.53 0.60 0.63 0.65 0.72 0.95 1.22 1.35 1.37 1.26
0.44 0.45 0.47 0.53 0.67 0.91 1.05 0.99 0.92 0.91 0.88 0.87 0.84 0.85 0.91 0.97 0.93 0.76 0.57 0.45 0.48 0.61 0.71 0.73 0.73 0.73 0.71 0.66 0.54 0.45 0.37 0.38 0.44 0.51 0.61 0.72 0.81 0.90 1.00 1.16 1.34 1.38 1.35
0.41 0.40 0.40 0.47 0.61 0.83 1.00 1.00 0.88 0.86 0.84 0.83 0.81 0.80 0.77 0.76 0.73 0.64 0.54 0.54 0.61 0.70 0.71 0.79 0.80 0.87 0.90 0.90 0.84 0.75 0.69 0.65 0.61 0.61 0.74 0.86 0.92 0.96 1.00 1.10 1.24 1.27 1.17
0.48 0.45 0.45 0.48 0.57 0.77 0.99 1.05 0.86 0.70 0.69 0.68 0.63 0.61 0.57 0.50 0.45 0.46 0.44 0.44 0.50 0.56 0.58 0.74 0.86 0.96 1.04 1.06 1.06 0.99 0.91 0.83 0.77 0.79 0.85 0.94 0.98 0.99 1.01 1.12 1.23 1.23 1.11
0.47 0.44 0.42 0.43 0.47 0.59 0.84 1.09 1.13 0.87 0.66 0.56 0.45 0.36 0.33 0.28 0.31 0.37 0.43 0.40 0.39 0.41 0.43 0.58 0.75 0.87 1.00 1.06 1.08 1.02 0.97 0.92 0.90 0.92 0.97 1.01 1.05 1.06 1.07 1.09 1.18 1.21 1.13
0.41 0.38 0.36 0.36 0.38 0.47 0.69 0.97 1.17 1.15 0.98 0.73 0.45 0.28 0.24 0.22 0.25 0.36 0.43 0.41 0.39 0.36 0.37 0.48 0.62 0.76 0.91 1.05 1.11 1.08 1.05 1.03 0.97 0.95 1.02 1.05 1.09 1.12 1.10 1.06 1.10 1.17 1.15
0.37 0.33 0.30 0.31 0.32 0.37 0.56 0.83 1.05 1.13 1.08 0.96 0.68 0.37 0.26 0.25 0.30 0.41 0.44 0.46 0.48 0.45 0.43 0.48 0.54 0.66 0.84 1.01 1.11 1.16 1.17 1.11 1.01 0.99 1.02 1.07 1.08 1.12 1.09 1.04 1.08 1.18 1.19
0.31 0.25 0.20 0.22 0.25 0.30 0.42 0.66 0.92 1.07 1.03 0.98 0.83 0.49 0.28 0.27 0.37 0.52 0.59 0.65 0.65 0.57 0.53 0.54 0.57 0.66 0.82 1.00 1.11 1.15 1.20 1.14 1.08 1.06 1.04 1.08 1.10 1.12 1.10 1.05 1.05 1.11 1.08
0.27 0.23 0.15 0.15 0.24 0.30 0.37 0.55 0.81 0.99 0.96 0.88 0.77 0.46 0.28 0.32 0.46 0.58 0.71 0.76 0.76 0.70 0.66 0.63 0.63 0.69 0.81 0.95 1.04 1.08 1.14 1.13 1.08 1.06 1.05 1.07 1.12 1.11 1.16 1.15 1.09 1.10 1.10
0.24 0.24 0.21 0.22 0.28 0.32 0.36 0.54 0.77 0.91 0.88 0.83 0.74 0.51 0.36 0.43 0.54 0.64 0.71 0.70 0.68 0.63 0.61 0.65 0.68 0.73 0.79 0.87 0.95 1.05 1.10 1.10 1.09 1.07 1.08 1.10 1.14 1.14 1.17 1.18 1.14 1.10 1.10
0.20 0.22 0.22 0.24 0.29 0.28 0.39 0.57 0.72 0.80 0.78 0.75 0.64 0.53 0.49 0.54 0.56 0.61 0.65 0.66 0.64 0.62 0.61 0.66 0.73 0.77 0.82 0.86 0.90 0.97 1.02 1.01 1.00 1.01 1.07 1.11 1.13 1.12 1.12 1.12 1.08 1.08 1.04
0.21 0.24 0.26 0.29 0.31 0.38 0.48 0.61 0.67 0.66 0.65 0.63 0.60 0.60 0.61 0.63 0.59 0.58 0.62 0.65 0.68 0.70 0.70 0.69 0.71 0.71 0.73 0.77 0.80 0.82 0.86 0.83 0.80 0.83 0.88 0.96 1.00 1.02 1.03 1.06 1.05 1.04 1.03
0.19 0.22 0.28 0.34 0.38 0.44 0.54 0.63 0.64 0.62 0.57 0.54 0.55 0.59 0.59 0.56 0.59 0.62 0.67 0.70 0.71 0.69 0.64 0.64 0.66 0.65 0.62 0.62 0.62 0.64 0.67 0.62 0.55 0.58 0.66 0.80 0.88 0.91 0.91 0.95 0.99 1.01 1.02
0.17 0.20 0.25 0.31 0.35 0.39 0.49 0.58 0.57 0.52 0.47 0.47 0.51 0.58 0.59 0.59 0.63 0.66 0.68 0.72 0.75 0.72 0.69 0.67 0.62 0.61 0.60 0.60 0.58 0.59 0.54 0.45 0.40 0.43 0.46 0.59 0.75 0.81 0.85 0.90 0.93 1.00 1.02